This is the latest recevied weather packets stored in our database for station/object KK7MLS-13. If no packets are shown the sender has not sent any weather packets the latest 10 day(s).
| Time | Temp. | Humidity | Pressure | Rain* | Wind** | Luminosity | Snow |
|---|---|---|---|---|---|---|---|
| 1777839372 | 32.22° C | 33% | 1010.4 hPa | 0 mm | - | 733 W/m² | - |
| 1777839069 | 32.22° C | 32% | 1010.5 hPa | 0 mm | - | 735 W/m² | - |
| 1777838765 | 32.22° C | 31% | 1010.4 hPa | 0 mm | - | 736 W/m² | - |
| 1777838462 | 32.22° C | 34% | 1010.4 hPa | 0 mm | - | 735 W/m² | - |
| 1777838159 | 31.67° C | 31% | 1010.3 hPa | 0 mm | - | 736 W/m² | - |
| 1777837856 | 31.67° C | 34% | 1010.6 hPa | 0 mm | - | 735 W/m² | - |
| 1777837553 | 31.67° C | 32% | 1010.7 hPa | 0 mm | - | 735 W/m² | - |
| 1777837253 | 31.67° C | 33% | 1010.8 hPa | 0 mm | - | 731 W/m² | - |
| 1777836944 | 31.67° C | 34% | 1010.8 hPa | 0 mm | - | 730 W/m² | - |
| 1777836639 | 31.11° C | 34% | 1010.7 hPa | 0 mm | - | 729 W/m² | - |
| 1777836336 | 31.11° C | 37% | 1011 hPa | 0 mm | - | 726 W/m² | - |
| 1777836032 | 30.56° C | 37% | 1010.9 hPa | 0 mm | - | 724 W/m² | - |
| 1777835728 | 30.56° C | 34% | 1010.8 hPa | 0 mm | - | 720 W/m² | - |
| 1777835425 | 30° C | 37% | 1011 hPa | 0 mm | - | 718 W/m² | - |
| 1777835122 | 30° C | 36% | 1011 hPa | 0 mm | - | 713 W/m² | - |
| 1777834819 | 29.44° C | 34% | 1011.3 hPa | 0 mm | - | 710 W/m² | - |
| 1777834515 | 30° C | 36% | 1011.2 hPa | 0 mm | - | 706 W/m² | - |
| 1777834215 | 29.44° C | 38% | 1011.2 hPa | 0 mm | - | 699 W/m² | - |
| 1777833912 | 28.89° C | 41% | 1011.2 hPa | 0 mm | - | 694 W/m² | - |
| 1777833608 | 28.33° C | 41% | 1011.5 hPa | 0 mm | - | 687 W/m² | - |
| 1777833305 | 28.33° C | 40% | 1011.3 hPa | 0 mm | - | 683 W/m² | - |
| 1777833001 | 28.89° C | 40% | 1011.6 hPa | 0 mm | - | 676 W/m² | - |
| 1777832700 | 28.33° C | 40% | 1011.5 hPa | 0 mm | - | 669 W/m² | - |
| 1777832398 | 27.78° C | 40% | 1011.6 hPa | 0 mm | - | 662 W/m² | - |
| 1777832095 | 27.22° C | 41% | 1011.6 hPa | 0 mm | - | 654 W/m² | - |
* Rain latest hour (hover to see other rain measurements)
** Current wind speed in m/s (hover to see current wind gust speed)